MMS 3

Last updated on Wed Sep 17 2025 00:02:40 GMT+0000 (Coordinated Universal Time)

1 40484U 15011C 25259.58337963 -.00002308 00000+0 00000+0 0 9997 2 40484 67.4898 353.0895 8601600 161.6204 95.5647 0.28494531 1382
UTC large
Height (km)
Speed (km/s)
/
Latitude / Longitude
Inclination (degrees)
Orbital Period (minutes)
Azimuth
Elevation
Range (km)
Doppler Factor

Next 0 passes for location: London (51.5072 / 0.1276)

Sorry there are no passes over London.